#timestamp,LO_Frequency,Hit,StdDev 
1570867215.6,286047001.7,N
1570867235.4,286047002.4,N
1570867255.2,286047001.3,N
1570867275.1,286047004.1,N
1570867276.0,286047004.1,N
1570867295.8,286047006.0,Y
1570867315.7,286047003.5,P
1570867335.5,286047002.9,P
1570867355.3,286047004.7,P
1570867375.2,286047007.2,Y
1570867395.0,286047002.2,P
1570867395.9,286047002.2,P
1570867415.8,286047000.5,N
1570867435.6,286047000.0,N
1570867455.4,286047002.4,N
1570867475.3,286047000.0,N
1570867495.1,286047002.7,N
1570867515.8,286046999.7,N
1570867535.7,286046998.9,N
1570867555.5,286046999.1,N
1570867575.4,286046996.3,N
1570867595.2,286046996.4,N
1570867615.0,286046998.0,N
1570867615.9,286046998.0,N
1570867635.8,286046998.0,N
1570867655.6,286046995.7,N
1570867675.5,286046996.4,N
1570867695.3,286046996.1,N
1570867715.1,286046993.8,N
1570867735.9,286046992.2,N
1570867755.7,286046991.1,Y
1570867775.6,286046995.5,P
1570867795.4,286046991.9,P
1570867815.2,286046992.1,N
1570867835.1,286046992.4,N
1570867836.0,286046992.4,N
1570867855.8,286046992.8,N
1570867875.6,286046994.5,N
1570867895.5,286046993.4,Y
1570867915.3,286047002.8,P
1570867935.2,286047000.8,N
1570867955.9,286047002.6,N
1570867975.7,286047005.2,N
1570867995.6,286047006.4,N
1570868015.4,286047010.4,N
1570868035.3,286047006.4,N
1570868055.1,286047009.7,N
1570868056.0,286047009.7,N
1570868075.8,286047013.9,N
1570868095.7,286047012.2,N
1570868115.5,286047011.7,N
1570868135.3,286047011.2,N
1570868155.2,286047013.3,N
1570868175.0,286047015.5,N
1570868175.9,286047015.5,N
1570868195.8,286047013.9,N
1570868215.6,286047012.0,N
1570868235.4,286047012.3,N
1570868255.3,286047010.1,N
1570868275.1,286047009.3,N
1570868295.8,286047008.4,N
1570868315.7,286047009.0,N
1570868335.5,286047006.3,N
1570868355.4,286047005.9,N
1570868375.2,286047001.4,N
1570868395.0,286047001.9,N
1570868395.9,286047001.9,N
1570868415.8,286047004.3,N
1570868435.6,286047001.8,N
1570868455.4,286047002.2,N
1570868475.3,286047002.8,N
1570868495.1,286046998.5,N
1570868515.9,286047000.6,N
1570868535.7,286046999.1,N
1570868555.5,286046998.8,N
1570868575.4,286046997.7,N
1570868595.2,286046995.3,N
1570868615.0,286046997.5,N
1570868616.0,286046997.5,N
1570868635.8,286046997.9,N
1570868655.6,286046997.6,N
1570868675.5,286046995.1,N
1570868695.3,286046995.5,N
1570868715.1,286046995.7,N
1570868735.9,286046995.7,N
1570868755.7,286046993.3,N
1570868775.6,286046996.3,N
1570868795.4,286046994.2,N
1570868815.2,286046993.6,N
1570868835.1,286046994.0,N
1570868836.0,286046994.0,N
1570868855.8,286046993.7,N
1570868875.6,286046993.6,N
1570868895.5,286046994.0,N
1570868915.3,286046994.0,N
1570868935.2,286046994.6,N
1570868955.9,286046994.4,N
1570868975.7,286046993.8,N
1570868995.6,286046996.4,N
1570869015.4,286046994.2,N
1570869035.3,286046992.6,Y
1570869055.1,286046995.8,P
1570869056.0,286046995.8,P
1570869075.8,286046995.2,P
1570869095.7,286046993.4,Y
1570869115.5,286046999.4,P
1570869135.3,286046999.1,N
1570869155.2,286046999.0,N
1570869175.0,286046999.0,N
1570869175.9,286046999.0,N
1570869195.8,286046999.2,N
1570869215.6,286046998.3,N
1570869265.5,286047002.4,E
1570869275.4,286047000.3,N
1570869295.2,286046998.7,P
1570869315.1,286046999.4,N
1570869316.0,286046999.4,N
1570869335.8,286046996.7,Y
1570869355.6,286046999.4,P
1570869375.5,286047000.8,P
1570869395.3,286047000.5,N
1570869415.2,286047000.6,N
1570869435.9,286046998.9,N
1570869455.7,286046999.2,N
1570869475.6,286046996.5,Y
1570869495.4,286046998.6,P
1570869515.3,286046998.9,N
1570869535.1,286046999.4,N
1570869536.0,286046999.4,N
1570869555.8,286047000.3,N
1570869575.7,286047002.7,Y
1570869595.5,286046999.8,P
1570869615.3,286047001.6,P
1570869635.2,286047002.6,N
1570869655.0,286047004.0,Y
1570869655.9,286047004.0,P
1570869675.8,286047001.7,N
1570869695.6,286047000.2,N
1570869715.4,286047002.2,N
1570869735.3,286047002.7,N
1570869755.1,286047002.4,N
1570869775.9,286046999.7,N
1570869795.7,286047002.7,N
1570869815.5,286047002.7,N
1570869835.4,286047002.7,N
1570869855.2,286047002.7,N
1570869875.0,286046999.8,N
1570869875.9,286046999.8,N
1570869895.8,286047000.6,N
1570869915.6,286047002.7,N
1570869935.5,286047000.3,N
1570869955.3,286047002.5,N
1570869975.1,286047000.4,N
1570869995.9,286046998.2,N
1570870015.7,286046998.7,N
1570870035.5,286046998.1,N
1570870055.4,286047003.7,N
1570870075.2,286047005.7,Y
1570870095.1,286047004.8,P
1570870096.0,286047004.8,N
1570870115.8,286047003.7,N
1570870135.6,286047005.9,Y
1570870155.5,286047000.3,P
1570870175.3,286047001.4,N
1570870195.2,286047005.6,P
1570870215.9,286047005.2,N
1570870235.7,286047004.1,N
1570870255.6,286047002.6,N
1570870275.4,286047002.8,N
1570870295.2,286047004.0,N
1570870315.1,286047004.2,N
1570870316.0,286047004.2,N
1570870335.8,286047001.4,N
1570870355.7,286047003.1,N
1570870375.5,286047003.5,N
1570870395.3,286047001.3,N
1570870415.2,286047011.9,Y
1570870435.0,286047001.0,P
1570870435.9,286047001.0,N
1570870455.8,286047000.9,N
1570870475.6,286046999.2,N
1570870495.4,286046999.6,N
1570870515.3,286046999.0,N
1570870535.1,286046999.1,N
1570870555.8,286047000.8,N
1570870575.7,286046996.8,N
1570870595.5,286046996.5,N
1570870615.4,286046997.2,N
1570870635.2,286046997.8,N
1570870655.0,286046999.4,N
1570870655.9,286046999.4,N
1570870675.8,286046996.5,N
1570870695.6,286046999.5,N
1570870715.4,286046996.7,N
1570870735.3,286046999.2,N
1570870755.1,286046998.8,N
1570870775.9,286047001.1,N
1570870795.7,286046998.2,N
